H1 CPF 1 NER 2016 1 29 9 5291 glonass124 H2 1004101 9124 37137 2016 1 29 0 0 0 2016 2 1 23 45 0 900 1 1 0 0 0 H9 10 0 57416 0.00000 0 11466308.477 12105592.857 -19303393.538 10 0 57416 900.00000 0 9058666.930 11520932.758 -20885540.225 10 0 57416 1800.00000 0 6447340.998 11091836.953 -22062383.227 10 0 57416 2700.00000 0 3694321.359 10847677.355 -22811442.712 10 0 57416 3600.00000 0 866767.736 10806522.746 -23118545.979 10 0 57416 4500.00000 0 -1965540.990 10974360.222 -22978072.815 10 0 57416 5400.00000 0 -4732856.059 11344840.537 -22393037.791 10 0 57416 6300.00000 0 -7368099.415 11899555.863 -21375009.989 10 0 57416 7200.00000 0 -9809388.413 12608836.456 -19943873.333 10 0 57416 8100.00000 0 -12002342.982 13433031.764 -18127433.154 10 0 57416 9000.00000 0 -13902082.718 14324221.941 -15960876.960 10 0 57416 9900.00000 0 -15474834.093 15228288.521 -13486099.539 10 0 57416 10800.00000 0 -16699083.866 16087258.545 -10750904.631 10 0 57416 11700.00000 0 -17566233.038 16841825.468 -7808097.221 10 0 57416 12600.00000 0 -18080725.674 17433942.864 -4714482.458 10 0 57416 13500.00000 0 -18259648.167 17809383.873 -1529788.731 10 0 57416 14400.00000 0 -18131815.813 17920160.385 1684466.154 10 0 57416 15300.00000 0 -17736384.424 17726701.285 4866145.410 10 0 57416 16200.00000 0 -17121044.133 17199698.535 7953679.277 10 0 57416 17100.00000 0 -16339869.857 16321542.945 10887244.911 10 0 57416 18000.00000 0 -15450917.205 15087287.980 13609918.173 10 0 57416 18900.00000 0 -14513663.584 13505098.981 16068775.621 10 0 57416 19800.00000 0 -13586401.032 11596166.114 18215925.514 10 0 57416 20700.00000 0 -12723689.941 9394081.477 20009447.591 10 0 57416 21600.00000 0 -11973980.811 6943702.941 21414222.786 10 0 57416 22500.00000 0 -11377504.783 4299548.781 22402635.844 10 0 57416 23400.00000 0 -10964522.999 1523787.093 22955135.809 10 0 57416 24300.00000 0 -10754010.245 -1316098.671 23060641.940 10 0 57416 25200.00000 0 -10752830.419 -4149872.574 22716785.340 10 0 57416 26100.00000 0 -10955440.820 -6907231.565 21929979.688 10 0 57416 27000.00000 0 -11344139.884 -9520501.632 20715317.791 10 0 57416 27900.00000 0 -11889849.747 -11927231.773 19096294.216 10 0 57416 28800.00000 0 -12553401.922 -14072576.335 17104357.973 10 0 57416 29700.00000 0 -13287272.329 -15911364.805 14778302.996 10 0 57416 30600.00000 0 -14037692.134 -17409771.004 12163507.789 10 0 57416 31500.00000 0 -14747044.058 -18546510.524 9311039.407 10 0 57416 32400.00000 0 -15356441.004 -19313515.523 6276640.072 10 0 57416 33300.00000 0 -15808375.474 -19716058.568 3119617.690 10 0 57416 34200.00000 0 -16049325.013 -19772321.181 -98335.983 10 0 57416 35100.00000 0 -16032200.686 -19512427.018 -3314374.133 10 0 57416 36000.00000 0 -15718532.760 -18976983.048 -6465744.139 10 0 57416 36900.00000 0 -15080299.380 -18215193.253 -9491030.474 10 0 57416 37800.00000 0 -14101319.996 -17282627.734 -12331364.998 10 0 57416 38700.00000 0 -12778154.568 -16238744.488 -14931579.598 10 0 57416 39600.00000 0 -11120471.201 -15144271.057 -17241277.917 10 0 57416 40500.00000 0 -9150867.978 -14058558.366 -19215805.369 10 0 57416 41400.00000 0 -6904157.982 -13037019.153 -20817099.458 10 0 57416 42300.00000 0 -4426149.169 -12128758.755 -22014405.318 10 0 57416 43200.00000 0 -1771971.455 -11374496.702 -22784844.773 10 0 57416 44100.00000 0 995978.264 -10804864.488 -23113830.298 10 0 57416 45000.00000 0 3810387.296 -10439148.380 -22995318.389 10 0 57416 45900.00000 0 6601577.369 -10284527.138 -22431899.945 10 0 57416 46800.00000 0 9300149.343 -10335833.764 -21434727.974 10 0 57416 47700.00000 0 11839614.717 -10575848.798 -20023285.693 10 0 57416 48600.00000 0 14158907.416 -10976111.019 -18225000.518 10 0 57416 49500.00000 0 16204674.657 -11498210.418 -16074711.792 10 0 57416 50400.00000 0 17933254.783 -12095509.002 -13614002.294 10 0 57416 51300.00000 0 19312262.758 -12715217.684 -10890405.659 10 0 57416 52200.00000 0 20321719.872 -13300743.234 -7956503.684 10 0 57416 53100.00000 0 20954682.336 -13794208.276 -4868929.441 10 0 57416 54000.00000 0 21217343.738 -14139040.129 -1687293.662 10 0 57416 54900.00000 0 21128607.425 -14282521.240 1526946.745 10 0 57416 55800.00000 0 20719146.334 -14178195.181 4711657.805 10 0 57416 56700.00000 0 20029988.713 -13788027.617 7805214.211 10 0 57416 57600.00000 0 19110687.645 -13084231.217 10747680.039 10 0 57416 58500.00000 0 18017149.549 -12050676.817 13481962.452 10 0 57416 59400.00000 0 16809211.243 -10683829.720 15954916.674 10 0 57416 60300.00000 0 15548065.892 -8993169.256 18118381.023 10 0 57416 61200.00000 0 14293644.966 -7001070.849 19930121.676 10 0 57416 62100.00000 0 13102065.718 -4742152.041 21354668.255 10 0 57416 63000.00000 0 12023251.502 -2262106.146 22364023.096 10 0 57416 63900.00000 0 11098825.681 383931.089 22938229.032 10 0 57416 64800.00000 0 10360368.861 3133416.681 23065783.154 10 0 57416 65700.00000 0 9828114.401 5918754.902 22743886.652 10 0 57416 66600.00000 0 9510138.969 8669874.403 21978523.998 10 0 57416 67500.00000 0 9402084.127 11316921.171 20784368.001 10 0 57416 68400.00000 0 9487422.373 13792954.882 19184510.842 10 0 57416 69300.00000 0 9738257.681 16036535.150 17210024.885 10 0 57416 70200.00000 0 10116627.375 17994088.218 14899360.782 10 0 57416 71100.00000 0 10576250.233 19621953.587 12297594.149 10 0 57416 72000.00000 0 11064645.998 20888023.222 9455535.750 10 0 57416 72900.00000 0 11525534.901 21772903.370 6428723.362 10 0 57416 73800.00000 0 11901413.367 22270549.729 3276316.478 10 0 57416 74700.00000 0 12136194.043 22388349.328 59917.477 10 0 57416 75600.00000 0 12177795.538 22146646.900 -3157655.406 10 0 57416 76500.00000 0 11980569.571 21577737.667 -6313616.884 10 0 57416 77400.00000 0 11507460.650 20724371.616 -9346458.339 10 0 57416 78300.00000 0 10731805.425 19637835.398 -12197160.217 10 0 57416 79200.00000 0 9638694.962 18375695.778 -14810347.998 10 0 57416 80100.00000 0 8225842.573 16999302.615 -17135368.346 10 0 57416 81000.00000 0 6503921.443 15571158.790 -19127264.551 10 0 57416 81900.00000 0 4496359.088 14152269.131 -20747633.100 10 0 57416 82800.00000 0 2238598.852 12799580.139 -21965346.157 10 0 57416 83700.00000 0 -223139.232 11563617.374 -22757128.071 10 0 57416 84600.00000 0 -2833545.349 10486417.881 -23107977.124 10 0 57416 85500.00000 0 -5530283.618 9599841.935 -23011426.894 10 0 57417 0.00000 0 -8246346.883 8924331.787 -22469644.687 10 0 57417 900.00000 0 -10912605.777 8468166.442 -21493367.111 10 0 57417 1800.00000 0 -13460447.537 8227240.053 -20101676.039 10 0 57417 2700.00000 0 -15824397.449 8185371.820 -18321619.941 10 0 57417 3600.00000 0 -17944617.086 8315131.193 -16187688.642 10 0 57417 4500.00000 0 -19769178.013 8579143.716 -13741151.286 10 0 57417 5400.00000 0 -21256019.561 8931822.050 -11029269.569 10 0 57417 6300.00000 0 -22374511.683 9321450.162 -8104400.132 10 0 57417 7200.00000 0 -23106559.694 9692534.235 -5023001.904 10 0 57417 8100.00000 0 -23447206.167 9988322.935 -1844565.823 10 0 57417 9000.00000 0 -23404705.398 10153392.562 1369514.300 10 0 57417 9900.00000 0 -23000067.083 10136189.679 4557109.569 10 0 57417 10800.00000 0 -22266087.509 9891425.089 7656541.481 10 0 57417 11700.00000 0 -21245907.396 9382218.663 10607763.457 10 0 57417 12600.00000 0 -19991155.176 8581904.254 13353516.439 10 0 57417 13500.00000 0 -18559751.705 7475417.402 15840436.812 10 0 57417 14400.00000 0 -17013466.747 6060205.340 18020095.397 10 0 57417 15300.00000 0 -15415328.308 4346618.219 19849947.120 10 0 57417 16200.00000 0 -13826992.499 2357761.760 21294172.411 10 0 57417 17100.00000 0 -12306183.806 128813.804 22324393.034 10 0 57417 18000.00000 0 -10904313.349 -2294170.264 22920247.142 10 0 57417 18900.00000 0 -9664375.787 -4855916.645 23069810.822 10 0 57417 19800.00000 0 -8619214.325 -7493990.428 22769856.143 10 0 57417 20700.00000 0 -7790228.285 -10141167.125 22025938.768 10 0 57417 21600.00000 0 -7186579.121 -12728020.761 20852311.518 10 0 57417 22500.00000 0 -6804929.907 -15185620.757 19271663.814 10 0 57417 23400.00000 0 -6629730.427 -17448224.361 17314690.595 10 0 57417 24300.00000 0 -6634036.591 -19455850.903 15019498.099 10 0 57417 25200.00000 0 -6780829.540 -21156628.535 12430857.578 10 0 57417 26100.00000 0 -7024777.965 -22508813.207 9599321.694 10 0 57417 27000.00000 0 -7314367.579 -23482393.794 6580221.716 10 0 57417 27900.00000 0 -7594305.366 -24060214.670 3432566.430 10 0 57417 28800.00000 0 -7808094.054 -24238567.953 217866.325 10 0 57417 29700.00000 0 -7900664.841 -24027231.163 -3001091.629 10 0 57417 30600.00000 0 -7820953.880 -23448949.842 -6161492.317 10 0 57417 31500.00000 0 -7524310.908 -22538389.083 -9201737.010 10 0 57417 32400.00000 0 -6974636.124 -21340600.863 -12062657.833 10 0 57417 33300.00000 0 -6146153.705 -19909074.597 -14688676.981 10 0 57417 34200.00000 0 -5024746.725 -18303455.981 -17028887.221 10 0 57417 35100.00000 0 -3608797.549 -16587032.513 -19038032.646 10 0 57417 36000.00000 0 -1909499.319 -14824093.187 -20677371.389 10 0 57417 36900.00000 0 49373.136 -13077274.030 -21915404.951 10 0 57417 37800.00000 0 2232221.911 -11405000.580 -22728462.070 10 0 57417 38700.00000 0 4592881.138 -9859133.126 -23101128.230 10 0 57417 39600.00000 0 7076315.280 -8482911.141 -23026515.003 10 0 57417 40500.00000 0 9620689.591 -7309279.952 -22506366.502 10 0 57417 41400.00000 0 12159727.076 -6359666.325 -21551003.026 10 0 57417 42300.00000 0 14625255.078 -5643250.872 -20179104.668 10 0 57417 43200.00000 0 16949837.576 -5156764.565 -18417340.179 10 0 57417 44100.00000 0 19069386.209 -4884815.374 -16299848.673 10 0 57417 45000.00000 0 20925644.103 -4800729.520 -13867584.049 10 0 57417 45900.00000 0 22468441.953 -4867871.136 -11167534.019 10 0 57417 46800.00000 0 23657634.966 -5041384.794 -8251827.576 10 0 57417 47700.00000 0 24464641.978 -5270288.336 -5176746.622 10 0 57417 48600.00000 0 24873524.022 -5499829.137 -2001659.067 10 0 57417 49500.00000 0 24881558.038 -5674006.061 1212107.846 10 0 57417 50400.00000 0 24499281.692 -5738152.386 4402433.890 10 0 57417 51300.00000 0 23750006.683 -5641472.066 7507590.950 10 0 57417 52200.00000 0 22668819.538 -5339423.146 10467425.247 10 0 57417 53100.00000 0 21301109.942 -4795847.935 13224514.722 10 0 57417 54000.00000 0 19700686.243 -3984759.415 15725279.827 10 0 57417 54900.00000 0 17927554.989 -2891707.019 17921026.430 10 0 57417 55800.00000 0 16045455.712 -1514661.970 19768900.372 10 0 57417 56700.00000 0 14119252.751 135618.126 21232734.642 10 0 57417 57600.00000 0 12212292.369 2035764.260 22283771.785 10 0 57417 58500.00000 0 10383835.533 4150506.894 22901246.193 10 0 57417 59400.00000 0 8686674.106 6433896.555 23072813.446 10 0 57417 60300.00000 0 7165031.071 8830986.310 22794816.536 10 0 57417 61200.00000 0 5852834.013 11279908.260 22072381.913 10 0 57417 62100.00000 0 4772435.696 13714259.003 20919341.562 10 0 57417 63000.00000 0 3933836.797 16065695.183 19357980.865 10 0 57417 63900.00000 0 3334444.777 18266630.407 17418615.679 10 0 57417 64800.00000 0 2959379.717 20252919.751 15139005.827 10 0 57417 65700.00000 0 2782314.389 21966417.907 12563615.876 10 0 57417 66600.00000 0 2766812.549 23357301.762 9742737.848 10 0 57417 67500.00000 0 2868107.507 24386058.068 6731493.716 10 0 57417 68400.00000 0 3035243.663 25025050.957 3588738.597 10 0 57417 69300.00000 0 3213487.720 25259602.395 375888.052 10 0 57417 70200.00000 0 3346904.394 25088539.662 -2844305.303 10 0 57417 71100.00000 0 3380984.389 24524187.446 -6008999.567 10 0 57417 72000.00000 0 3265210.527 23591806.470 -9056508.791 10 0 57417 72900.00000 0 2955450.960 22328504.299 -11927519.458 10 0 57417 73800.00000 0 2416076.559 20781666.893 -14566252.893 10 0 57417 74700.00000 0 1621712.193 19006979.678 -16921550.066 10 0 57417 75600.00000 0 558547.913 17066123.859 -18947857.656 10 0 57417 76500.00000 0 -774844.477 15024246.753 -20606096.918 10 0 57417 77400.00000 0 -2367222.566 12947313.489 -21864399.856 10 0 57417 78300.00000 0 -4194922.835 10899451.219 -22698700.478 10 0 57417 79200.00000 0 -6222636.614 8940396.117 -23093172.035 10 0 57417 80100.00000 0 -8404678.807 7123148.071 -23040504.324 10 0 57417 81000.00000 0 -10686695.773 5491928.389 -22542018.156 10 0 57417 81900.00000 0 -13007741.203 4080522.487 -21607616.951 10 0 57417 82800.00000 0 -15302634.170 2911073.322 -20255578.112 10 0 57417 83700.00000 0 -17504502.702 1993372.485 -18512189.332 10 0 57417 84600.00000 0 -19547409.048 1324675.503 -16411237.342 10 0 57417 85500.00000 0 -21368949.719 890046.669 -13993358.835 10 0 57418 0.00000 0 -22912724.677 663217.280 -11305265.449 10 0 57418 900.00000 0 -24130575.124 607920.512 -8398856.115 10 0 57418 1800.00000 0 -24984499.205 679646.888 -5330233.407 10 0 57418 2700.00000 0 -25448166.145 827747.352 -2158639.805 10 0 57418 3600.00000 0 -25507967.893 997796.516 1054666.445 10 0 57418 4500.00000 0 -25163563.293 1134118.080 4247576.247 10 0 57418 5400.00000 0 -24427891.959 1182367.283 7358314.351 10 0 57418 6300.00000 0 -23326655.772 1092062.575 10326622.266 10 0 57418 7200.00000 0 -21897287.907 818960.256 13094917.407 10 0 57418 8100.00000 0 -20187450.355 327171.751 15609406.696 10 0 57418 9000.00000 0 -18253120.489 -409066.754 17821133.313 10 0 57418 9900.00000 0 -16156344.554 -1404048.645 19686936.057 10 0 57418 10800.00000 0 -13962750.133 -2659734.412 21170302.231 10 0 57418 11700.00000 0 -11738920.122 -4165411.806 22242096.568 10 0 57418 12600.00000 0 -9549737.207 -5897896.376 22881150.731 10 0 57418 13500.00000 0 -7455809.571 -7822267.588 23074700.423 10 0 57418 14400.00000 0 -5511085.778 -9893113.059 22818659.819 10 0 57418 15300.00000 0 -3760759.526 -12056231.648 22117726.048 10 0 57418 16200.00000 0 -2239553.108 -14250726.260 20985309.826 10 0 57418 17100.00000 0 -970452.794 -16411400.038 19443291.757 10 0 57418 18000.00000 0 36049.548 -18471355.868 17521607.583 10 0 57418 18900.00000 0 782175.891 -20364689.723 15257669.399 10 0 57418 19800.00000 0 1282532.971 -22029163.520 12695633.526 10 0 57418 20700.00000 0 1563248.897 -23408743.477 9885529.516 10 0 57418 21600.00000 0 1660613.030 -24455895.210 6882268.040 10 0 57418 22500.00000 0 1619278.454 -25133537.049 3744548.366 10 0 57418 23400.00000 0 1490105.599 -25416567.708 533688.796 10 0 57418 24300.00000 0 1327741.307 -25292902.984 -2687594.869 10 0 57418 25200.00000 0 1188039.095 -24763977.742 -5856436.471 10 0 57418 26100.00000 0 1125432.948 -23844692.779 -8911065.492 10 0 57418 27000.00000 0 1190378.593 -22562810.362 -11792025.473 10 0 57418 27900.00000 0 1426972.588 -20957826.087 -14443339.576 10 0 57418 28800.00000 0 1870851.205 -19079366.945 -16813599.647 10 0 57418 29700.00000 0 2547458.243 -16985185.506 -18856957.493 10 0 57418 30600.00000 0 3470754.427 -14738836.494 -20533999.823 10 0 57418 31500.00000 0 4642421.653 -12407134.743 -21812491.174 10 0 57418 32400.00000 0 6051594.028 -10057501.487 -22667972.480 10 0 57418 33300.00000 0 7675125.375 -7755309.540 -23084206.017 10 0 57418 34200.00000 0 9478380.471 -5561336.840 -23053460.645 10 0 57418 35100.00000 0 11416515.826 -3529432.239 -22576634.306 10 0 57418 36000.00000 0 13436196.045 -1704487.803 -21663213.604 10 0 57418 36900.00000 0 15477674.293 -120798.730 -20331072.945 10 0 57418 37800.00000 0 17477151.070 1199124.341 -18606118.320 10 0 57418 38700.00000 0 19369314.572 2245244.514 -16521783.074 10 0 57418 39600.00000 0 21089958.735 3020163.398 -14118385.326 10 0 57418 40500.00000 0 22578572.213 3538756.822 -11442358.735 10 0 57418 41400.00000 0 23780792.650 3827298.201 -8545370.262 10 0 57418 42300.00000 0 24650625.918 3922106.825 -5483340.477 10 0 57418 43200.00000 0 25152339.360 3867777.664 -2315383.562 10 0 57418 44100.00000 0 25261950.965 3715066.255 897314.356 10 0 57418 45000.00000 0 24968252.499 3518516.455 4092658.570 10 0 57418 45900.00000 0 24273323.320 3333929.618 7208829.993 10 0 57418 46800.00000 0 23192512.184 3215780.603 10185468.654 10 0 57418 47700.00000 0 21753885.921 3214688.692 12964834.515 10 0 57418 48600.00000 0 19997165.789 3375049.762 15492923.820 10 0 57418 49500.00000 0 17972193.405 3732929.980 17720519.644 10 0 57418 50400.00000 0 15736987.876 4314310.974 19604156.035 10 0 57418 51300.00000 0 13355472.949 5133762.401 21106976.587 10 0 57418 52200.00000 0 10894967.140 6193600.440 22199469.855 10 0 57418 53100.00000 0 8423540.304 7483570.697 22860066.037 10 0 57418 54000.00000 0 6007346.185 8981072.285 23075581.829 10 0 57418 54900.00000 0 3708042.178 10651917.025 22841503.003 10 0 57418 55800.00000 0 1580404.573 12451594.924 22162097.322 10 0 57418 56700.00000 0 -329760.185 14326995.334 21050353.681 10 0 57418 57600.00000 0 -1987319.677 16218513.284 19527746.868 10 0 57418 58500.00000 0 -3369062.523 18062453.348 17623831.017 10 0 57418 59400.00000 0 -4464434.872 19793629.944 15375668.581 10 0 57418 60300.00000 0 -5275734.970 21348053.890 12827105.369 10 0 57418 61200.00000 0 -5817757.551 22665590.525 10027905.933 10 0 57418 62100.00000 0 -6116903.842 23692475.389 7032766.865 10 0 57418 63000.00000 0 -6209796.380 24383579.419 3900228.650 10 0 57418 63900.00000 0 -6141459.355 24704326.019 691509.275 10 0 57418 64800.00000 0 -5963144.397 24632177.703 -2530715.364 10 0 57418 65700.00000 0 -5729897.045 24157628.906 -5703557.968 10 0 57418 66600.00000 0 -5497970.157 23284663.099 -8765166.447 10 0 57418 67500.00000 0 -5322196.791 22030655.906 -11655944.230 10 0 57418 68400.00000 0 -5253436.154 20425729.868 -14319718.923 10 0 57418 69300.00000 0 -5336202.366 18511590.140 -16704835.569 10 0 57418 70200.00000 0 -5606576.991 16339892.359 -18765153.114 10 0 57418 71100.00000 0 -6090493.380 13970213.321 -20460925.405 10 0 57418 72000.00000 0 -6802464.222 11467711.225 -21759550.877 10 0 57418 72900.00000 0 -7744804.370 8900574.302 -22636178.418 10 0 57418 73800.00000 0 -8907379.847 6337364.434 -23074160.010 10 0 57418 74700.00000 0 -10267891.693 3844365.669 -23065343.891 10 0 57418 75600.00000 0 -11792681.227 1483046.216 -22610205.057 10 0 57418 76500.00000 0 -13438022.006 -692263.150 -21717812.782 10 0 57418 77400.00000 0 -15151844.025 -2636380.808 -20405637.543 10 0 57418 78300.00000 0 -16875818.507 -4314896.038 -18699202.272 10 0 57418 79200.00000 0 -18547717.300 -5705336.762 -16631585.193 10 0 57418 80100.00000 0 -20103949.967 -6797837.815 -14242783.795 10 0 57418 81000.00000 0 -21482174.686 -7595284.542 -11578951.534 10 0 57418 81900.00000 0 -22623876.154 -8112927.685 -8691520.813 10 0 57418 82800.00000 0 -23476804.804 -8377486.708 -5636227.693 10 0 57418 83700.00000 0 -23997177.198 -8425779.522 -2472055.425 10 0 57418 84600.00000 0 -24151546.729 -8302935.661 739884.650 10 0 57418 85500.00000 0 -23918266.881 -8060267.035 3937514.911 10 0 57419 0.00000 0 -23288485.618 -7752884.584 7058975.073 10 0 57419 900.00000 0 -22266627.783 -7437160.013 10043806.504 10 0 57419 1800.00000 0 -20870344.697 -7168137.807 12834114.275 10 0 57419 2700.00000 0 -19129928.951 -6997007.002 15375686.455 10 0 57419 3600.00000 0 -17087217.907 -6968737.903 17619048.314 10 0 57419 4500.00000 0 -14794027.771 -7119984.822 19520431.173 10 0 57419 5400.00000 0 -12310181.388 -7477344.147 21042636.587 10 0 57419 6300.00000 0 -9701209.398 -8056043.256 22155778.195 10 0 57419 7200.00000 0 -7035818.875 -8859118.057 22837885.565 10 0 57419 8100.00000 0 -4383233.610 -9877116.773 23075356.780 10 0 57419 9000.00000 0 -1810516.296 -11088345.597 22863249.204 10 0 57419 9900.00000 0 620015.579 -12459648.880 22205400.848 10 0 57419 10800.00000 0 2853171.738 -13947693.693 21114378.084 10 0 57419 11700.00000 0 4842968.539 -15500706.754 19611248.888 10 0 57419 12600.00000 0 6554317.564 -17060591.790 17725184.516 10 0 57419 13500.00000 0 7964251.579 -18565338.554 15492896.267 10 0 57419 14400.00000 0 9062635.541 -19951621.429 12957917.684 10 0 57419 15300.00000 0 9852332.450 -21157476.642 10169746.298 10 0 57419 16200.00000 0 10348817.504 -22124943.398 7182862.397 10 0 57419 17100.00000 0 10579257.949 -22802555.139 4055645.267 10 0 57419 18000.00000 0 10581099.322 -23147573.385 849210.010 10 0 57419 18900.00000 0 10400220.590 -23127868.104 -2373810.025 10 0 57419 19800.00000 0 10088739.202 -22723363.653 -5550509.063 10 0 57419 20700.00000 0 9702562.298 -21926988.785 -8618956.105 10 0 57419 21600.00000 0 9298790.866 -20745090.951 -11519417.084 10 0 57419 22500.00000 0 8933089.425 -19197298.323 -14195526.580 10 0 57419 23400.00000 0 8657134.538 -17315837.051 -16595385.226 10 0 57419 24300.00000 0 8516251.185 -15144334.470 -18672561.324 10 0 57419 25200.00000 0 8547337.036 -12736160.499 -20386977.821 10 0 57419 26100.00000 0 8777161.481 -10152378.568 -21705668.699 10 0 57419 27000.00000 0 9221109.670 -7459392.948 -22603392.090 10 0 57419 27900.00000 0 9882422.480 -4726391.129 -23063090.581 10 0 57419 28800.00000 0 10751962.232 -2022687.427 -23076192.283 10 0 57419 29700.00000 0 11808511.956 584923.033 -22642749.360 10 0 57419 30600.00000 0 13019594.083 3034692.207 -21771413.520 10 0 57419 31500.00000 0 14342773.201 5272226.657 -20479250.745 10 0 57419 32400.00000 0 15727388.067 7252482.220 -18791400.042 10 0 57419 33300.00000 0 17116640.880 8941366.376 -16740583.353 10 0 57419 34200.00000 0 18449957.541 10316884.939 -14366476.082 10 0 57419 35100.00000 0 19665521.822 11369788.247 -11714949.720 10 0 57419 36000.00000 0 20702879.448 12103692.243 -8837200.036 10 0 57419 36900.00000 0 21505505.070 12534670.859 -5788776.219 10 0 57419 37800.00000 0 22023226.568 12690337.534 -2628527.968 10 0 57419 38700.00000 0 22214406.512 12608454.351 582510.979 10 0 57419 39600.00000 0 22047790.163 12335126.411 3782283.017 10 0 57419 40500.00000 0 21503942.611 11922656.267 6908889.754 10 0 57419 41400.00000 0 20576214.010 11427147.241 9901776.539 10 0 57419 42300.00000 0 19271190.896 10905955.205 12702896.456 10 0 57419 43200.00000 0 17608612.436 10415095.028 15257832.012 10 0 57419 44100.00000 0 15620752.292 10006710.367 17516853.075 10 0 57419 45000.00000 0 13351288.908 9726713.358 19435890.409 10 0 57419 45900.00000 0 10853708.318 9612694.343 20977405.442 10 0 57419 46800.00000 0 8189303.152 9692191.046 22111138.533 10 0 57419 47700.00000 0 5424848.909 9981392.112 22814719.935 10 0 57419 48600.00000 0 2630052.433 10484332.061 23074130.067 10 0 57419 49500.00000 0 -125122.311 11192614.331 22883998.415 10 0 57419 50400.00000 0 -2773140.059 12085676.876 22247733.310 10 0 57419 51300.00000 0 -5251479.523 13131591.698 21177478.171 10 0 57419 52200.00000 0 -7505009.474 14288366.760 19693893.219 10 0 57419 53100.00000 0 -9488055.166 15505696.831 17825765.406 10 0 57419 54000.00000 0 -11166067.455 16727090.057 15609453.010 10 0 57419 54900.00000 0 -12516823.581 17892280.273 13088175.065 10 0 57419 55800.00000 0 -13531108.442 18939822.086 10311159.580 10 0 57419 56700.00000 0 -14212847.710 19809757.375 7332667.831 10 0 57419 57600.00000 0 -14578687.789 20446238.253 4210915.051 10 0 57419 58500.00000 0 -14657041.829 20799993.186 1006910.561 10 0 57419 59400.00000 0 -14486644.250 20830529.691 -2216757.786 10 0 57419 60300.00000 0 -14114677.758 20507978.613 -5397168.684 10 0 57419 61200.00000 0 -13594555.271 19814501.003 -8472315.100 10 0 57419 62100.00000 0 -12983453.813 18745197.690 -11382328.241 10 0 57419 63000.00000 0 -12339707.658 17308483.643 -14070652.269 10 0 57419 63900.00000 0 -11720173.338 15525912.535 -16485145.785 10 0 57419 64800.00000 0 -11177679.415 13431460.409 -18579088.538 10 0 57419 65700.00000 0 -10758669.308 11070300.433 -20312074.355 10 0 57419 66600.00000 0 -10501136.224 8497121.880 -21650774.203 10 0 57419 67500.00000 0 -10432935.926 5774065.006 -22569556.555 10 0 57419 68400.00000 0 -10570546.422 2968358.758 -23050955.329 10 0 57419 69300.00000 0 -10918324.374 149759.762 -23085978.859 10 0 57419 70200.00000 0 -11468287.019 -2612101.811 -22674256.422 10 0 57419 71100.00000 0 -12200426.585 -5250361.010 -21824021.699 10 0 57419 72000.00000 0 -13083542.287 -7703434.343 -20551935.293 10 0 57419 72900.00000 0 -14076554.026 -9917312.104 -18882750.999 10 0 57419 73800.00000 0 -15130242.505 -11847534.934 -16848832.823 10 0 57419 74700.00000 0 -16189343.378 -13460775.710 -14489532.117 10 0 57419 75600.00000 0 -17194908.860 -14735964.067 -11850436.194 10 0 57419 76500.00000 0 -18086839.512 -15664909.240 -8982501.803 10 0 57419 77400.00000 0 -18806481.931 -16252397.054 -5941088.757 10 0 57419 78300.00000 0 -19299185.289 -16515758.135 -2784910.626 10 0 57419 79200.00000 0 -19516711.025 -16483925.700 425079.085 10 0 57419 80100.00000 0 -19419395.662 -16196021.975 3626845.442 10 0 57419 81000.00000 0 -18977976.303 -15699531.620 6758454.565 10 0 57419 81900.00000 0 -18175001.780 -15048137.549 9759258.598 10 0 57419 82800.00000 0 -17005768.959 -14299308.655 12571061.228 10 0 57419 83700.00000 0 -15478742.915 -13511739.573 15139241.938 10 0 57419 84600.00000 0 -13615440.605 -12742749.204 17413817.573 10 0 57419 85500.00000 0 -11449779.848 -12045746.923 19350420.456 99